Tracking 28052 objects as of 22-Sep-2023
HD Live streaming from Space Station
objects crossing your sky now

STARLINK-5427

Track STARLINK-5427 now!
10-day predictions
STARLINK-5427 is classified as:


NORAD ID: 54853
Int'l Code: 2022-177AK
Perigee: 565.3 km
Apogee: 567.1 km
Inclination: 43.0 °
Period: 95.8 minutes
Semi major axis: 6937 km
RCS: Unknown
Launch date: December 28, 2022
Source: United States (US)
Launch site: AIR FORCE EASTERN TEST RANGE (AFETR)
Your satellite tracking list
Your tracking list is empty




NASA's NSSDC Master Catalog

Two Line Element Set (TLE):
1 54853U 22177AK  23264.32051026  .00016762  00000-0  12529-2 0  9993
2 54853  43.0032 332.9180 0001336 294.4571  65.6131 15.02536944 41668
Source of the keplerian elements: AFSPC